Tracking 28794 objects as of 22-Apr-2024
HD Live streaming from Space Station
objects crossing your sky now

CZ-4B R/B

Track CZ-4B R/B now!
10-day predictions


NORAD ID: 46481
Int'l Code: 2020-067D
Perigee: 397.5 km
Apogee: 531.6 km
Inclination: 98.0 °
Period: 93.7 minutes
Semi major axis: 6835 km
RCS: Unknown
Launch date: September 27, 2020
Source: People's Republic of China (PRC)
Launch site: Taiyaun Space Center, China (TSC)

Note: This is a ROCKET BODY
Your satellite tracking list
Your tracking list is empty




NASA's NSSDC Master Catalog

Two Line Element Set (TLE):
1 46481U 20067D   24112.99607318  .00053828  00000-0  12952-2 0  9998
2 46481  98.0100 271.8501 0098073 232.7355 126.4914 15.36177523197353
Source of the keplerian elements: AFSPC